Geneva, Switzerland

10:40 PM CEST on August 27, 2016 (GMT +0200)
Cointrin

Weather History for LSGG - April, 2013

Change the Weather History Date:

Tuesday, April 9, 2013

  Actual Average Record
Temperature  
Mean Temperature 46 °F -  
Max Temperature 55 °F 58 °F 77 °F (2011)
Min Temperature 37 °F 40 °F 30 °F (2012)
Degree Days  
Heating Degree Days 19    
Moisture  
Dew Point 40 °F    
Average Humidity 80    
Maximum Humidity 100    
Minimum Humidity 40    
Precipitation  
Precipitation 0.24 in 0.08 in - ()
Sea Level Pressure  
Sea Level Pressure 29.72 in    
Wind  
Wind Speed 7 mph ()    
Max Wind Speed 23 mph    
Max Gust Speed -    
Visibility 6.4 miles    
Events Fog , Rain , Thunderstorm    
Averages and records for this station are not official NWS values.
T = Trace of Precipitation, MM = Missing Value Source: Averaged Metar Reports

Daily Weather History Graph

Daily Weather History Graph

Search for Another Location

Airport or City:

Trip Planner

Search our weather history database for the weather conditions in past years. The results will help you decide how hot, cold, wet, or windy it might be!

Date:

Astronomy

Apr. 09, 2013 Rise Set
Actual Time 6:59 AM CEST 8:14 PM CEST
Civil Twilight 6:29 AM CEST 8:45 PM CEST
Nautical Twilight 5:51 AM CEST 9:23 PM CEST
Astronomical Twilight 5:12 AM CEST 10:03 PM CEST
Moon 6:16 AM CEST (4/9) 7:33 PM CEST (4/9)
Length of Visible Light 14h 16m
Length of Day
13h 14m
Waning Crescent, 1% of the Moon is Illuminated
Apr 9
Waning Crescent
Apr 10
New
Apr 18
First Quarter
Apr 25
Full
May 2
Last Quarter

Hourly Weather History & Observations

Time (CEST) Temp. Windchill Dew Point Humidity Pressure Visibility Wind Dir Wind Speed Gust Speed Precip Events Conditions
12:00 AM 42 °F - 40 °F 88% 29.77 in - WNW 2.3 mph - -  
12:20 AM 41.0 °F - 41.0 °F 100% 29.74 in 6.2 mi Variable 1.2 mph - N/A Rain Light Rain Showers
12:50 AM 41.0 °F - 41.0 °F 100% 29.74 in 6.2 mi Variable 1.2 mph - N/A   Mostly Cloudy
1:00 AM 42 °F - 40 °F 91% 29.77 in - WNW 2.3 mph - -  
1:20 AM 42.8 °F - 41.0 °F 93% 29.74 in 5.0 mi Variable 2.3 mph - N/A Rain Light Rain Showers
1:50 AM 41.0 °F 39.0 °F 41.0 °F 100% 29.74 in 6.2 mi Variable 3.5 mph - N/A   Mostly Cloudy
2:00 AM 42 °F - 40 °F 91% 29.77 in 16 mi West 2.3 mph - -   Partly Cloudy
2:20 AM 41.0 °F - 39.2 °F 93% 29.74 in 6.2 mi Calm Calm - N/A   Mostly Cloudy
2:50 AM 41.0 °F - 39.2 °F 93% 29.71 in 6.2 mi Variable 1.2 mph - N/A   Scattered Clouds
3:00 AM 41 °F - 40 °F 92% 29.76 in - WNW 1.2 mph - -  
3:50 AM 39.2 °F - 37.4 °F 93% 29.71 in 6.2 mi Calm Calm - N/A Fog Shallow Fog
4:00 AM 39 °F - 38 °F 92% 29.76 in - North 1.2 mph - -  
4:20 AM 37.4 °F - 37.4 °F 100% 29.71 in 6.2 mi ENE 1.2 mph - N/A Fog Shallow Fog
4:50 AM 39.2 °F 37.0 °F 37.4 °F 93% 29.71 in 6.2 mi Variable 3.5 mph - N/A Fog Shallow Fog
5:20 AM 39.2 °F - 39.2 °F 100% 29.71 in 6.2 mi West 1.2 mph - N/A   Scattered Clouds
5:50 AM 39.2 °F - 37.4 °F 93% 29.68 in 6.2 mi Variable 2.3 mph - N/A   Scattered Clouds
6:00 AM 39 °F - 38 °F 92% 29.73 in - West 2.3 mph - -  
6:20 AM 37.4 °F - 37.4 °F 100% 29.68 in 6.2 mi Variable 1.2 mph - N/A Fog Shallow Fog
6:50 AM 37.4 °F - 37.4 °F 100% 29.68 in 6.2 mi Variable 2.3 mph - N/A   Mostly Cloudy
7:00 AM 39 °F - 38 °F 94% 29.72 in - East 3.5 mph - -  
7:20 AM 39.2 °F 37.0 °F 37.4 °F 93% 29.68 in 6.2 mi Variable 3.5 mph - N/A   Mostly Cloudy
7:50 AM 41.0 °F - 39.2 °F 93% 29.65 in 6.2 mi Calm Calm - N/A   Mostly Cloudy
8:00 AM 42 °F - 40 °F 89% 29.70 in 16 mi North 1.2 mph - -   Scattered Clouds
8:20 AM 42.8 °F 38.6 °F 41.0 °F 93% 29.65 in 6.2 mi WSW 6.9 mph - N/A   Overcast
8:50 AM 42.8 °F 38.6 °F 39.2 °F 87% 29.68 in 6.2 mi WSW 6.9 mph - N/A Rain Light Rain
9:00 AM 43 °F - 39 °F 79% 29.71 in - WSW 6.9 mph - -  
9:20 AM 42.8 °F 39.3 °F 41.0 °F 93% 29.68 in 6.2 mi WSW 5.8 mph - N/A Rain Light Rain
9:50 AM 44.6 °F 40.7 °F 39.2 °F 81% 29.68 in 5.0 mi WSW 6.9 mph - N/A Rain Light Rain
10:00 AM 44 °F - 40 °F 80% 29.71 in - WSW 6.9 mph - -  
10:20 AM 42.8 °F 38.0 °F 41.0 °F 93% 29.68 in 5.0 mi WSW 8.1 mph - N/A Rain Light Rain
10:50 AM 42.8 °F 38.0 °F 41.0 °F 93% 29.68 in 5.0 mi WSW 8.1 mph - N/A Rain Rain
11:20 AM 44.6 °F 39.2 °F 41.0 °F 87% 29.71 in 4.3 mi WSW 10.4 mph - N/A Rain Rain
11:50 AM 44.6 °F 38.4 °F 41.0 °F 87% 29.71 in 4.3 mi SW 12.7 mph - N/A Rain Rain
12:00 PM 44 °F - 40 °F 82% 29.74 in - SW 15.0 mph - -  
12:20 PM 44.6 °F 36.9 °F 41.0 °F 87% 29.71 in 6.2 mi SSW 18.4 mph - N/A Rain Light Rain
12:50 PM 44.6 °F 36.9 °F 41.0 °F 87% 29.71 in 6.2 mi SSW 18.4 mph - N/A Rain Light Rain
1:00 PM 46 °F - 40 °F 72% 29.73 in - SW 19.6 mph - -  
1:20 PM 46.4 °F 39.0 °F 41.0 °F 81% 29.71 in 6.2 mi SSW 19.6 mph - N/A Rain Light Rain
1:50 PM 46.4 °F 39.2 °F 39.2 °F 76% 29.71 in 6.2 mi SW 18.4 mph - N/A   Mostly Cloudy
2:00 PM 47 °F - 40 °F 70% 29.73 in 22 mi SW 17.3 mph - - Rain Light Rain
2:20 PM 46.4 °F 39.0 °F 41.0 °F 81% 29.71 in 6.2 mi SW 19.6 mph - N/A Rain Light Rain Showers
2:50 PM 48.2 °F - 41.0 °F 76% 29.71 in 6.2 mi SSW 17.3 mph - N/A Rain Light Rain Showers
3:00 PM 49 °F - 40 °F 63% 29.72 in - SSW 18.4 mph - -  
3:20 PM 50.0 °F - 42.8 °F 76% 29.71 in 6.2 mi SW 18.4 mph - N/A Rain Light Rain Showers
3:50 PM 50.0 °F - 41.0 °F 71% 29.71 in 6.2 mi SW 19.6 mph - N/A   Mostly Cloudy
4:00 PM 51 °F - 42 °F 62% 29.71 in - SW 19.6 mph - -  
4:20 PM 53.6 °F - 41.0 °F 62% 29.68 in 6.2 mi SW 19.6 mph - N/A   Scattered Clouds
4:50 PM 55.4 °F - 39.2 °F 54% 29.68 in 6.2 mi SW 20.7 mph - N/A   Scattered Clouds
5:20 PM 53.6 °F - 39.2 °F 58% 29.68 in 6.2 mi SW 19.6 mph - N/A   Mostly Cloudy
5:50 PM 55.4 °F - 39.2 °F 54% 29.68 in 6.2 mi SW 21.9 mph - N/A   Scattered Clouds
6:00 PM 55 °F - 38 °F 40% 29.69 in - SSW 20.7 mph - -  
6:20 PM 53.6 °F - 39.2 °F 58% 29.68 in 6.2 mi SSW 19.6 mph - N/A   Scattered Clouds
6:50 PM 53.6 °F - 39.2 °F 58% 29.68 in 6.2 mi SSW 18.4 mph - N/A   Partly Cloudy
7:00 PM 52 °F - 37 °F 46% 29.71 in - SSW 21.9 mph - -  
7:20 PM 51.8 °F - 39.2 °F 62% 29.71 in 6.2 mi SSW 18.4 mph - N/A   Scattered Clouds
7:50 PM 50.0 °F - 39.2 °F 66% 29.71 in 6.2 mi SSW 15.0 mph - N/A   Scattered Clouds
8:00 PM 49 °F - 38 °F 57% 29.73 in 31 mi SSW 12.7 mph - -   Partly Cloudy
8:20 PM 50.0 °F - 39.2 °F 66% 29.71 in 6.2 mi SW 15.0 mph - N/A   Mostly Cloudy
8:50 PM 46.4 °F 41.1 °F 41.0 °F 81% 29.74 in 6.2 mi WSW 11.5 mph - N/A Rain , Thunderstorm Light Thunderstorms and Rain
9:00 PM 46 °F - 42 °F 79% 29.77 in - SW 8.1 mph - -  
9:20 PM 46.4 °F 44.3 °F 42.8 °F 87% 29.74 in 6.2 mi SW 4.6 mph - N/A   Mostly Cloudy
9:50 PM 48.2 °F - 41.0 °F 76% 29.77 in 6.2 mi SW 23.0 mph - N/A Rain Light Rain Showers
10:00 PM 48 °F - 41 °F 68% 29.80 in - SW 15.0 mph - -  
10:20 PM 50.0 °F - 39.2 °F 66% 29.80 in 6.2 mi SW 17.3 mph - N/A   Scattered Clouds
10:50 PM 48.2 °F - 39.2 °F 71% 29.80 in 6.2 mi SW 10.4 mph - N/A   Scattered Clouds
11:20 PM 48.2 °F - 39.2 °F 71% 29.80 in 6.2 mi WSW 9.2 mph - N/A   Scattered Clouds
11:50 PM 46.4 °F 42.9 °F 39.2 °F 76% 29.80 in 6.2 mi WSW 6.9 mph - N/A   Scattered Clouds